Time,TemperatureF,DewpointF,PressureIn,WindDirection,WindDirectionDegrees,WindSpeedMPH,WindSpeedGustMPH,Humidity,HourlyPrecipIn,Conditions,Clouds,dailyrainin,SoftwareType,DateUTC
2013-03-06 00:01:00,25.0,20.0,30.30,NNE,17,0.0,0.0,81,0.00,,,0.04,,2013-03-06 07:01:00,
2013-03-06 00:11:00,25.0,20.0,30.30,NNE,17,0.0,0.0,81,0.00,,,0.04,,2013-03-06 07:11:00,
2013-03-06 00:22:00,25.0,20.0,30.30,NNE,17,0.0,0.0,82,0.00,,,0.04,,2013-03-06 07:22:00,
2013-03-06 00:32:00,24.0,20.0,30.30,NNE,17,0.0,0.0,83,0.00,,,0.04,,2013-03-06 07:32:00,
2013-03-06 00:42:00,24.0,20.0,30.30,NNE,17,0.0,0.0,83,0.00,,,0.04,,2013-03-06 07:42:00,
2013-03-06 00:52:00,24.0,20.0,30.30,NNE,17,0.0,0.0,83,0.00,,,0.04,,2013-03-06 07:52:00,
2013-03-06 01:01:00,24.0,20.0,30.29,NNE,17,0.0,0.0,84,0.00,,,0.04,,2013-03-06 08:01:00,
2013-03-06 01:11:00,24.0,20.0,30.29,NNE,17,0.0,0.0,84,0.00,,,0.04,,2013-03-06 08:11:00,
2013-03-06 01:21:00,23.0,19.0,30.29,NNE,17,0.0,0.0,85,0.00,,,0.04,,2013-03-06 08:21:00,
2013-03-06 01:32:00,23.0,19.0,30.28,NNE,17,0.0,0.0,85,0.00,,,0.04,,2013-03-06 08:32:00,
2013-03-06 01:42:00,23.0,19.0,30.28,NNE,17,0.0,0.0,85,0.00,,,0.04,,2013-03-06 08:42:00,
2013-03-06 01:52:00,23.0,19.0,30.29,NNE,17,0.0,0.0,85,0.00,,,0.04,,2013-03-06 08:52:00,
2013-03-06 02:01:00,23.0,19.0,30.28,NNE,17,0.0,0.0,85,0.00,,,0.04,,2013-03-06 09:01:00,
2013-03-06 02:12:00,23.0,19.0,30.28,NNE,17,0.0,0.0,85,0.00,,,0.04,,2013-03-06 09:12:00,
2013-03-06 02:21:00,23.0,19.0,30.28,NNE,17,0.0,0.0,85,0.00,,,0.04,,2013-03-06 09:21:00,
2013-03-06 02:31:00,22.0,18.0,30.27,NNE,17,0.0,0.0,85,0.00,,,0.04,,2013-03-06 09:31:00,
2013-03-06 02:42:00,22.0,18.0,30.27,NNE,17,0.0,0.0,85,0.00,,,0.04,,2013-03-06 09:42:00,
2013-03-06 02:52:00,22.0,18.0,30.26,NNE,17,0.0,0.0,86,0.00,,,0.04,,2013-03-06 09:52:00,
2013-03-06 03:01:00,22.0,18.0,30.25,NNE,17,0.0,0.0,86,0.00,,,0.04,,2013-03-06 10:01:00,
2013-03-06 03:11:00,22.0,18.0,30.25,NNE,17,0.0,0.0,86,0.00,,,0.04,,2013-03-06 10:11:00,
2013-03-06 03:21:00,22.0,19.0,30.25,NNE,17,0.0,0.0,87,0.00,,,0.04,,2013-03-06 10:21:00,
2013-03-06 03:32:00,22.0,18.0,30.24,NNE,17,0.0,0.0,86,0.00,,,0.04,,2013-03-06 10:32:00,
2013-03-06 03:42:00,22.0,18.0,30.24,NNE,17,0.0,0.0,86,0.00,,,0.04,,2013-03-06 10:42:00,
2013-03-06 03:52:00,22.0,19.0,30.23,South,177,0.0,1.0,87,0.00,,,0.04,,2013-03-06 10:52:00,
2013-03-06 04:02:00,22.0,18.0,30.23,South,177,0.0,0.0,86,0.00,,,0.04,,2013-03-06 11:02:00,
2013-03-06 04:11:00,22.0,18.0,30.23,South,177,0.0,0.0,86,0.00,,,0.04,,2013-03-06 11:11:00,
2013-03-06 04:22:00,22.0,18.0,30.23,South,177,0.0,0.0,86,0.00,,,0.04,,2013-03-06 11:22:00,
2013-03-06 04:32:00,21.0,17.0,30.22,South,177,0.0,0.0,86,0.00,,,0.04,,2013-03-06 11:32:00,
2013-03-06 04:42:00,21.0,17.0,30.22,South,177,0.0,0.0,86,0.00,,,0.04,,2013-03-06 11:42:00,
2013-03-06 04:52:00,21.0,18.0,30.22,South,177,0.0,0.0,87,0.00,,,0.04,,2013-03-06 11:52:00,
2013-03-06 05:02:00,20.0,17.0,30.22,South,177,0.0,0.0,87,0.00,,,0.04,,2013-03-06 12:02:00,
2013-03-06 05:11:00,20.0,17.0,30.22,South,177,0.0,0.0,87,0.00,,,0.04,,2013-03-06 12:11:00,
2013-03-06 05:21:00,21.0,18.0,30.21,South,177,0.0,0.0,88,0.00,,,0.04,,2013-03-06 12:21:00,
2013-03-06 05:32:00,20.0,17.0,30.21,South,177,0.0,0.0,87,0.00,,,0.04,,2013-03-06 12:32:00,
2013-03-06 05:42:00,20.0,17.0,30.21,South,177,0.0,0.0,87,0.00,,,0.04,,2013-03-06 12:42:00,
2013-03-06 05:52:00,20.0,17.0,30.21,South,177,0.0,0.0,87,0.00,,,0.04,,2013-03-06 12:52:00,
2013-03-06 06:02:00,20.0,17.0,30.21,South,177,0.0,0.0,88,0.00,,,0.04,,2013-03-06 13:02:00,
2013-03-06 06:12:00,20.0,17.0,30.21,South,177,0.0,0.0,88,0.00,,,0.04,,2013-03-06 13:12:00,
2013-03-06 06:22:00,19.0,16.0,30.20,South,177,0.0,0.0,88,0.00,,,0.04,,2013-03-06 13:22:00,
2013-03-06 06:32:00,19.0,16.0,30.19,South,177,0.0,0.0,89,0.00,,,0.04,,2013-03-06 13:32:00,
2013-03-06 06:42:00,19.0,16.0,30.19,South,177,0.0,0.0,89,0.00,,,0.04,,2013-03-06 13:42:00,
2013-03-06 06:52:00,19.0,16.0,30.19,South,177,0.0,0.0,89,0.00,,,0.04,,2013-03-06 13:52:00,
2013-03-06 07:01:00,19.0,16.0,30.19,South,177,0.0,0.0,89,0.00,,,0.04,,2013-03-06 14:01:00,
2013-03-06 07:11:00,19.0,16.0,30.19,South,177,0.0,0.0,89,0.00,,,0.04,,2013-03-06 14:11:00,
2013-03-06 07:22:00,20.0,18.0,30.18,South,177,0.0,0.0,90,0.00,,,0.04,,2013-03-06 14:22:00,
2013-03-06 07:32:00,21.0,18.0,30.18,South,177,0.0,0.0,89,0.00,,,0.04,,2013-03-06 14:32:00,
2013-03-06 07:42:00,21.0,18.0,30.18,South,177,0.0,0.0,89,0.00,,,0.04,,2013-03-06 14:42:00,
2013-03-06 07:52:00,22.0,19.0,30.19,South,177,0.0,0.0,88,0.00,,,0.04,,2013-03-06 14:52:00,
2013-03-06 08:02:00,24.0,21.0,30.18,South,177,0.0,0.0,87,0.00,,,0.04,,2013-03-06 15:02:00,
2013-03-06 08:11:00,24.0,21.0,30.18,South,177,0.0,0.0,87,0.00,,,0.04,,2013-03-06 15:11:00,
2013-03-06 08:21:00,26.0,22.0,30.18,South,177,0.0,0.0,83,0.00,,,0.04,,2013-03-06 15:21:00,
2013-03-06 08:32:00,27.0,21.0,30.18,SSE,165,0.0,0.0,79,0.00,,,0.04,,2013-03-06 15:32:00,
2013-03-06 08:42:00,27.0,21.0,30.18,SSE,165,0.0,0.0,79,0.00,,,0.04,,2013-03-06 15:42:00,
2013-03-06 08:52:00,28.0,22.0,30.18,SSE,164,0.0,0.0,78,0.00,,,0.04,,2013-03-06 15:52:00,
2013-03-06 09:01:00,29.0,22.0,30.17,SSE,164,0.0,0.0,74,0.00,,,0.04,,2013-03-06 16:01:00,
2013-03-06 09:11:00,29.0,22.0,30.17,SSE,164,0.0,0.0,74,0.00,,,0.04,,2013-03-06 16:11:00,
2013-03-06 09:21:00,30.0,22.0,30.17,SSE,164,0.0,0.0,71,0.00,,,0.03,,2013-03-06 16:21:00,
2013-03-06 09:32:00,32.0,23.0,30.16,SSE,165,0.0,0.0,69,0.00,,,0.03,,2013-03-06 16:32:00,
2013-03-06 09:42:00,32.0,23.0,30.16,SSE,165,0.0,0.0,69,0.00,,,0.03,,2013-03-06 16:42:00,
2013-03-06 09:52:00,34.0,23.0,30.15,NNE,20,0.0,0.0,64,0.00,,,0.03,,2013-03-06 16:52:00,
2013-03-06 10:01:00,36.0,24.0,30.15,North,11,2.0,4.0,61,0.00,,,0.03,,2013-03-06 17:01:00,
2013-03-06 10:11:00,36.0,24.0,30.15,North,11,2.0,4.0,61,0.00,,,0.03,,2013-03-06 17:11:00,
2013-03-06 10:22:00,36.0,25.0,30.15,NNE,22,2.0,7.0,64,0.00,,,0.01,,2013-03-06 17:22:00,
2013-03-06 10:32:00,36.0,26.0,30.14,NNE,24,2.0,5.0,67,0.00,,,0.01,,2013-03-06 17:32:00,
2013-03-06 10:42:00,36.0,26.0,30.14,NNE,24,2.0,5.0,67,0.00,,,0.01,,2013-03-06 17:42:00,
2013-03-06 10:53:00,38.0,28.0,30.13,NNW,327,2.0,6.0,66,0.00,,,0.01,,2013-03-06 17:53:00,
2013-03-06 11:02:00,39.0,27.0,30.13,NNE,24,3.0,6.0,62,0.00,,,0.01,,2013-03-06 18:02:00,
2013-03-06 11:28:00,40.0,27.0,30.12,NNE,17,2.0,5.0,59,0.00,,,0.01,,2013-03-06 18:28:00,
2013-03-06 11:42:00,42.0,29.0,30.11,NE,46,2.0,6.0,59,0.00,,,0.01,,2013-03-06 18:42:00,
2013-03-06 11:52:00,44.0,29.0,30.10,NNE,31,0.0,7.0,56,0.00,,,0.01,,2013-03-06 18:52:00,
2013-03-06 12:02:00,45.0,30.0,30.09,NNE,24,2.0,7.0,55,0.00,,,0.01,,2013-03-06 19:02:00,
2013-03-06 12:11:00,45.0,30.0,30.09,NNE,24,2.0,7.0,55,0.00,,,0.01,,2013-03-06 19:11:00,
2013-03-06 12:22:00,46.0,31.0,30.07,SE,132,2.0,5.0,55,0.00,,,0.01,,2013-03-06 19:22:00,
2013-03-06 12:32:00,49.0,31.0,30.06,NNE,18,3.0,8.0,49,0.00,,,0.01,,2013-03-06 19:32:00,
2013-03-06 12:43:00,49.0,31.0,30.06,NNE,18,3.0,8.0,49,0.00,,,0.01,,2013-03-06 19:43:00,
2013-03-06 12:53:00,51.0,30.0,30.05,NNE,16,4.0,8.0,44,0.00,,,0.01,,2013-03-06 19:53:00,
2013-03-06 13:01:00,53.0,32.0,30.03,NNW,340,2.0,7.0,44,0.00,,,0.01,,2013-03-06 20:01:00,
2013-03-06 13:12:00,53.0,32.0,30.03,NNW,340,2.0,7.0,44,0.00,,,0.01,,2013-03-06 20:12:00,
2013-03-06 13:22:00,55.0,32.0,30.01,North,350,2.0,6.0,41,0.00,,,0.01,,2013-03-06 20:22:00,
2013-03-06 13:32:00,55.0,32.0,30.00,NNW,338,4.0,8.0,42,0.00,,,0.01,,2013-03-06 20:32:00,
2013-03-06 13:42:00,55.0,32.0,30.00,NNW,338,4.0,8.0,42,0.00,,,0.01,,2013-03-06 20:42:00,
2013-03-06 13:53:00,56.0,31.0,29.99,North,5,5.0,8.0,38,0.00,,,0.01,,2013-03-06 20:53:00,
2013-03-06 14:02:00,58.0,15.0,29.98,ESE,112,6.0,10.0,18,0.00,,,0.01,,2013-03-06 21:02:00,
2013-03-06 14:11:00,58.0,15.0,29.98,ESE,112,6.0,10.0,18,0.00,,,0.01,,2013-03-06 21:11:00,
2013-03-06 14:22:00,59.0,13.0,29.98,ESE,122,3.0,12.0,16,0.00,,,0.00,,2013-03-06 21:22:00,
2013-03-06 14:32:00,58.0,13.0,29.97,ESE,111,6.0,14.0,17,0.00,,,0.00,,2013-03-06 21:32:00,
2013-03-06 14:42:00,58.0,13.0,29.97,ESE,111,6.0,14.0,17,0.00,,,0.00,,2013-03-06 21:42:00,
2013-03-06 14:52:00,57.0,11.0,29.97,ESE,104,6.0,16.0,16,0.00,,,0.00,,2013-03-06 21:52:00,
2013-03-06 15:01:00,58.0,13.0,29.97,ESE,112,5.0,12.0,17,0.00,,,0.00,,2013-03-06 22:01:00,
2013-03-06 15:11:00,58.0,13.0,29.97,ESE,112,5.0,12.0,17,0.00,,,0.00,,2013-03-06 22:11:00,
2013-03-06 15:22:00,57.0,14.0,29.96,SE,130,8.0,16.0,18,0.00,,,0.00,,2013-03-06 22:22:00,
2013-03-06 15:32:00,56.0,13.0,29.96,ESE,108,6.0,13.0,18,0.00,,,0.00,,2013-03-06 22:32:00,
2013-03-06 15:42:00,56.0,13.0,29.96,ESE,108,6.0,13.0,18,0.00,,,0.00,,2013-03-06 22:42:00,
2013-03-06 15:52:00,56.0,14.0,29.95,East,95,4.0,12.0,19,0.00,,,0.00,,2013-03-06 22:52:00,
2013-03-06 16:01:00,57.0,15.0,29.94,SE,132,7.0,10.0,19,0.00,,,0.00,,2013-03-06 23:01:00,
2013-03-06 16:11:00,57.0,15.0,29.94,SE,132,7.0,10.0,19,0.00,,,0.00,,2013-03-06 23:11:00,
2013-03-06 16:21:00,57.0,15.0,29.93,SE,128,5.0,11.0,19,0.00,,,0.00,,2013-03-06 23:21:00,
2013-03-06 16:32:00,57.0,16.0,29.93,ESE,107,6.0,11.0,20,0.00,,,0.00,,2013-03-06 23:32:00,
2013-03-06 16:42:00,57.0,16.0,29.93,ESE,107,6.0,11.0,20,0.00,,,0.00,,2013-03-06 23:42:00,
2013-03-06 16:52:00,56.0,16.0,29.92,SSE,165,4.0,11.0,20,0.00,,,0.00,,2013-03-06 23:52:00,
2013-03-06 17:01:00,55.0,18.0,29.91,SE,134,4.0,8.0,23,0.00,,,0.00,,2013-03-07 00:01:00,
2013-03-06 17:11:00,55.0,18.0,29.91,SE,134,4.0,8.0,23,0.00,,,0.00,,2013-03-07 00:11:00,
2013-03-06 17:21:00,55.0,23.0,29.91,ESE,107,1.0,7.0,28,0.00,,,0.00,,2013-03-07 00:21:00,
2013-03-06 17:32:00,54.0,24.0,29.91,SSE,148,1.0,9.0,31,0.00,,,0.00,,2013-03-07 00:32:00,
2013-03-06 17:42:00,54.0,24.0,29.91,SSE,148,1.0,9.0,31,0.00,,,0.00,,2013-03-07 00:42:00,
2013-03-06 17:52:00,54.0,26.0,29.91,ESE,115,1.0,5.0,33,0.00,,,0.00,,2013-03-07 00:52:00,
2013-03-06 18:01:00,52.0,25.0,29.90,East,79,2.0,5.0,35,0.00,,,0.00,,2013-03-07 01:01:00,
2013-03-06 18:11:00,52.0,25.0,29.90,East,79,2.0,5.0,35,0.00,,,0.00,,2013-03-07 01:11:00,
2013-03-06 18:21:00,51.0,26.0,29.90,ESE,113,0.0,0.0,37,0.00,,,0.00,,2013-03-07 01:21:00,
2013-03-06 18:31:00,49.0,26.0,29.90,ESE,113,0.0,0.0,41,0.00,,,0.00,,2013-03-07 01:31:00,
2013-03-06 18:42:00,49.0,26.0,29.90,ESE,113,0.0,0.0,41,0.00,,,0.00,,2013-03-07 01:42:00,
2013-03-06 18:52:00,48.0,26.0,29.91,ESE,113,0.0,0.0,42,0.00,,,0.00,,2013-03-07 01:52:00,
2013-03-06 19:01:00,46.0,26.0,29.91,ESE,113,0.0,0.0,45,0.00,,,0.00,,2013-03-07 02:01:00,
2013-03-06 19:11:00,46.0,26.0,29.91,ESE,113,0.0,0.0,45,0.00,,,0.00,,2013-03-07 02:11:00,
2013-03-06 19:21:00,45.0,27.0,29.91,ESE,113,0.0,0.0,48,0.00,,,0.00,,2013-03-07 02:21:00,
2013-03-06 19:32:00,44.0,27.0,29.91,ESE,113,0.0,0.0,50,0.00,,,0.00,,2013-03-07 02:32:00,
2013-03-06 19:41:00,44.0,27.0,29.91,ESE,113,0.0,0.0,50,0.00,,,0.00,,2013-03-07 02:41:00,
2013-03-06 19:52:00,44.0,27.0,29.91,ESE,113,0.0,0.0,50,0.00,,,0.00,,2013-03-07 02:52:00,
2013-03-06 20:02:00,41.0,26.0,29.90,ESE,113,0.0,0.0,55,0.00,,,0.00,,2013-03-07 03:02:00,
2013-03-06 20:11:00,41.0,26.0,29.90,ESE,113,0.0,0.0,55,0.00,,,0.00,,2013-03-07 03:11:00,
2013-03-06 20:21:00,40.0,26.0,29.90,ESE,113,0.0,0.0,57,0.00,,,0.00,,2013-03-07 03:21:00,
2013-03-06 20:32:00,40.0,27.0,29.90,ESE,113,0.0,0.0,59,0.00,,,0.00,,2013-03-07 03:32:00,
2013-03-06 20:42:00,40.0,27.0,29.90,ESE,113,0.0,0.0,59,0.00,,,0.00,,2013-03-07 03:42:00,
2013-03-06 20:52:00,39.0,27.0,29.91,ESE,113,0.0,0.0,61,0.00,,,0.00,,2013-03-07 03:52:00,
2013-03-06 21:01:00,38.0,26.0,29.91,ESE,113,0.0,0.0,62,0.00,,,0.00,,2013-03-07 04:01:00,
2013-03-06 21:11:00,38.0,26.0,29.91,ESE,113,0.0,0.0,62,0.00,,,0.00,,2013-03-07 04:11:00,
2013-03-06 21:21:00,37.0,26.0,29.91,ESE,113,0.0,0.0,64,0.00,,,0.00,,2013-03-07 04:21:00,
2013-03-06 21:31:00,37.0,26.0,29.91,ESE,113,0.0,0.0,65,0.00,,,0.00,,2013-03-07 04:31:00,
2013-03-06 21:42:00,37.0,26.0,29.91,ESE,113,0.0,0.0,65,0.00,,,0.00,,2013-03-07 04:42:00,
2013-03-06 21:51:00,36.0,26.0,29.91,ESE,113,0.0,0.0,67,0.00,,,0.00,,2013-03-07 04:51:00,
2013-03-06 22:01:00,36.0,26.0,29.91,ESE,113,0.0,0.0,68,0.00,,,0.00,,2013-03-07 05:01:00,
2013-03-06 22:12:00,36.0,26.0,29.91,ESE,113,0.0,0.0,68,0.00,,,0.00,,2013-03-07 05:12:00,
2013-03-06 22:22:00,35.0,26.0,29.91,ESE,113,0.0,0.0,68,0.00,,,0.00,,2013-03-07 05:22:00,
2013-03-06 22:32:00,35.0,26.0,29.90,ESE,114,0.0,0.0,70,0.00,,,0.00,,2013-03-07 05:32:00,
2013-03-06 22:42:00,35.0,26.0,29.90,ESE,114,0.0,0.0,70,0.00,,,0.00,,2013-03-07 05:42:00,
2013-03-06 22:52:00,34.0,25.0,29.90,ESE,114,0.0,0.0,70,0.00,,,0.00,,2013-03-07 05:52:00,
2013-03-06 23:01:00,34.0,26.0,29.90,ESE,114,0.0,0.0,71,0.00,,,0.00,,2013-03-07 06:01:00,
2013-03-06 23:11:00,34.0,26.0,29.90,ESE,114,0.0,0.0,71,0.00,,,0.00,,2013-03-07 06:11:00,
2013-03-06 23:21:00,34.0,26.0,29.91,SSE,159,0.0,1.0,72,0.00,,,0.00,,2013-03-07 06:21:00,
2013-03-06 23:32:00,34.0,26.0,29.90,SSE,159,0.0,0.0,71,0.00,,,0.00,,2013-03-07 06:32:00,
2013-03-06 23:42:00,34.0,26.0,29.90,SSE,159,0.0,0.0,71,0.00,,,0.00,,2013-03-07 06:42:00,
2013-03-06 23:51:00,33.0,25.0,29.91,West,270,0.0,3.0,72,0.00,,,0.00,,2013-03-07 06:51:00,